Location: Chatou
(48.8898°N, 2.1586°E)
Time: 07:21:38
(UTC+00:00)

LilacSat-2 - Visible Passes

Search period start: 06 December 2023 00:00
Search period end: 16 December 2023 00:00
Orbit: 490 x 507 km, 97.5° (Epoch: 05 December)

Date Brightness Start Highest point End Pass type
(mag) Time Alt. Az. Time Alt. Az. Time Alt. Az.
06 Dec ? 05:22:25 10° NE 05:25:24 22° E 05:28:21 10° SSE visible
06 Dec ? 17:37:07 10° SSW 17:40:34 39° W 17:44:04 10° NNW visible
07 Dec ? 05:03:08 10° ENE 05:05:07 14° E 05:07:06 10° ESE visible
07 Dec ? 06:35:30 10° N 06:39:09 53° WNW 06:42:46 10° SSW visible
07 Dec ? 17:16:45 10° S 17:20:24 69° WSW 17:24:06 10° NNW visible
08 Dec ? 06:15:19 10° NNE 06:19:04 89° ESE 06:22:47 10° SSW visible
08 Dec ? 16:56:38 10° SSE 17:00:16 69° ENE 17:03:59 10° N visible
08 Dec ? 18:33:33 10° WSW 18:34:27 11° W 18:35:21 10° WNW visible
09 Dec ? 05:55:15 10° NNE 05:58:54 51° E 06:02:32 10° S visible
09 Dec ? 16:36:45 10° SE 16:40:12 40° ENE 16:43:42 10° N visible
09 Dec ? 18:11:33 10° SW 18:14:06 18° W 18:16:39 10° NW visible
10 Dec ? 05:35:21 10° NNE 05:38:41 30° E 05:41:59 10° SSE visible
10 Dec ? 17:50:35 10° SSW 17:53:48 28° W 17:57:03 10° NW visible
11 Dec ? 05:15:41 10° NE 05:18:23 19° E 05:21:04 10° SE visible
11 Dec ? 06:48:45 10° N 06:52:14 38° WNW 06:55:42 10° SW visible
11 Dec ? 17:29:58 10° S 17:33:32 48° W 17:37:09 10° NNW visible
12 Dec ? 04:56:41 10° ENE 04:58:00 11° E 04:59:19 10° ESE visible
12 Dec ? 06:28:26 10° N 06:32:08 65° WNW 06:35:49 10° SSW visible
12 Dec ? 17:09:38 10° SSE 17:13:19 84° WSW 17:17:03 10° NNW visible
13 Dec ? 06:08:13 10° NNE 06:11:58 73° ESE 06:15:40 10° S visible
13 Dec ? 16:49:34 10° SSE 16:53:10 56° ENE 16:56:49 10° N visible
13 Dec ? 18:25:26 10° WSW 18:27:13 13° W 18:29:01 10° WNW visible
14 Dec ? 05:48:09 10° NNE 05:51:43 42° E 05:55:15 10° S visible
14 Dec ? 16:29:42 10° SE 16:33:02 33° ENE 16:36:25 10° N visible
14 Dec ? 18:03:58 10° SW 18:06:49 21° W 18:09:43 10° NW visible
15 Dec ? 05:28:16 10° NE 05:31:24 25° E 05:34:31 10° SSE visible
15 Dec ? 07:01:51 10° N 07:05:05 28° WNW 07:08:18 10° SW visible
15 Dec ? 17:43:05 10° SSW 17:46:28 34° W 17:49:54 10° NNW visible
